Location: Joffre
(52.3362°N, 113.5373°W)
Time: 11:49:40
(UTC+00:00)

Envisat - Pass Details

Date: 30 November 2021
Orbit: 764 x 766 km, 98.2° (Epoch: 23 January)

Event Time Altitude Azimuth Distance (km) Brightness Sun altitude
Rises 14:38:38 0° 5° (N) 3,249 6.0 -6.3°
Reaches altitude 10° 14:41:43 10° 345° (NNW) 2,317 5.1 -5.9°
Maximum altitude 14:44:50 17° 307° (NW) 1,892 4.4 -5.4°
Drops below altitude 10° 14:47:57 10° 269° (W) 2,308 5.0 -5.0°
Sets 14:51:02 0° 250° (WSW) 3,230 5.9 -4.6°
